TimeEDT,TemperatureF,Dew PointF,Humidity,Sea Level PressureIn,VisibilityMPH,Wind Direction,Wind SpeedMPH,Gust SpeedMPH,PrecipitationIn,Events,Conditions,WindDirDegrees,DateUTC
12:51 AM,68.0,57.9,70,30.38,10.0,NE,8.1,-,N/A,,Clear,50,2011-10-09 04:51:00
1:51 AM,68.0,59.0,73,30.38,10.0,NE,6.9,16.1,N/A,,Scattered Clouds,50,2011-10-09 05:51:00
2:51 AM,68.0,59.0,73,30.36,10.0,NE,8.1,18.4,N/A,,Mostly Cloudy,50,2011-10-09 06:51:00
3:51 AM,68.0,59.0,73,30.34,10.0,NE,10.4,19.6,N/A,,Mostly Cloudy,50,2011-10-09 07:51:00
4:51 AM,68.0,59.0,73,30.35,10.0,ENE,9.2,19.6,N/A,,Partly Cloudy,60,2011-10-09 08:51:00
5:51 AM,68.0,60.1,76,30.35,10.0,ENE,8.1,-,N/A,,Partly Cloudy,60,2011-10-09 09:51:00
6:51 AM,68.0,61.0,78,30.36,10.0,ENE,9.2,16.1,N/A,,Clear,60,2011-10-09 10:51:00
7:51 AM,68.0,62.1,81,30.38,10.0,ENE,9.2,17.3,N/A,,Partly Cloudy,60,2011-10-09 11:51:00
8:51 AM,71.1,62.1,73,30.38,10.0,ENE,10.4,23.0,N/A,,Partly Cloudy,60,2011-10-09 12:51:00
9:51 AM,72.0,62.1,71,30.38,10.0,NE,12.7,21.9,N/A,,Scattered Clouds,50,2011-10-09 13:51:00
10:51 AM,72.0,62.1,71,30.39,10.0,ENE,10.4,21.9,N/A,,Mostly Cloudy,60,2011-10-09 14:51:00
11:51 AM,75.0,62.1,64,30.39,10.0,NE,12.7,21.9,N/A,,Scattered Clouds,50,2011-10-09 15:51:00
12:51 PM,73.9,60.1,62,30.37,10.0,ENE,12.7,24.2,N/A,,Scattered Clouds,60,2011-10-09 16:51:00
1:51 PM,75.0,61.0,62,30.33,10.0,ENE,10.4,20.7,N/A,,Scattered Clouds,70,2011-10-09 17:51:00
2:51 PM,73.9,61.0,64,30.32,10.0,NE,8.1,19.6,N/A,,Partly Cloudy,50,2011-10-09 18:51:00
3:51 PM,73.0,60.1,64,30.30,10.0,NE,12.7,20.7,N/A,,Partly Cloudy,50,2011-10-09 19:51:00
4:51 PM,72.0,60.1,66,30.30,10.0,NE,9.2,20.7,N/A,,Partly Cloudy,50,2011-10-09 20:51:00
5:51 PM,71.1,60.1,68,30.30,10.0,NE,11.5,18.4,N/A,,Scattered Clouds,50,2011-10-09 21:51:00
6:17 PM,69.8,60.8,73,30.30,10.0,NE,9.2,18.4,N/A,,Scattered Clouds,50,2011-10-09 22:17:00
6:51 PM,70.0,60.1,71,30.30,10.0,NE,8.1,17.3,N/A,,Clear,50,2011-10-09 22:51:00
7:51 PM,70.0,60.1,71,30.29,10.0,NE,8.1,17.3,N/A,,Clear,50,2011-10-09 23:51:00
8:07 PM,69.8,60.8,73,30.29,10.0,NE,8.1,18.4,N/A,,Scattered Clouds,50,2011-10-10 00:07:00
8:51 PM,69.1,60.1,73,30.28,10.0,NE,9.2,17.3,N/A,,Clear,50,2011-10-10 00:51:00
9:51 PM,69.1,60.1,73,30.29,10.0,NE,6.9,-,N/A,,Clear,50,2011-10-10 01:51:00
10:51 PM,69.1,60.1,73,30.29,10.0,ENE,6.9,16.1,N/A,,Clear,60,2011-10-10 02:51:00
11:51 PM,68.0,61.0,78,30.28,10.0,NE,6.9,-,N/A,,Clear,50,2011-10-10 03:51:00